Tracking 29892 objects as of 21-Nov-2024
HD Live streaming from Space Station
objects crossing your sky now

COSMOS 249 DEB

Track COSMOS 249 DEB now!
10-day predictions


NORAD ID: 3509
Int'l Code: 1968-091F
Perigee: 403.0 km
Apogee: 678.9 km
Inclination: 62.3 °
Period: 95.3 minutes
Semi major axis: 6911 km
RCS: 0.036 m2 (small)
Launch date: October 20, 1968
Source: Commonwealth of Independent States (former USSR) (CIS)
Launch site: TYURATAM MISSILE AND SPACE COMPLEX (TTMTR)

Note: This is SATELLITE DEBRIS
Your satellite tracking list
STARLINK-31324
Track 1 satellite(s)




NASA's NSSDC Master Catalog

Two Line Element Set (TLE):
1 03509U 68091F   24324.95957109  .00074129  00000-0  27236-2 0  9996
2 03509  62.3373 219.5654 0199616  38.0764 323.4248 15.10786135820716
Source of the keplerian elements: AFSPC